Torna al catalogo

COSMOS 1828

AttivoMilitarePO
NORAD 17583·PAYLOAD·🇷🇺 Russia

Lanciato Mar 13, 1987 da Plesetsk Cosmodrome

Loading…

Prossimi Passaggi (prossime 24 ore)

TLE

AggiornatoSource: Space-Track

Epoca: Sep 14, 2026, 20:38 UTC

1 17583U 87026B   26257.85979939  .00000013  00000-0  14383-4 0  9995
2 17583  82.5627 108.2650 0018127 225.4930 164.7742 12.66270579825890

Traccia COSMOS 1828 in tempo reale con AllMySat

Download on the App Store